Powrót do katalogu

STARLINK-5730

AktywnyŁącznośćVLEO
NORAD 55611·PAYLOAD·🇺🇸 United States

Wystrzelony Feb 12, 2023 z Cape Canaveral Space Force Station

Loading…

Następne Przeloty (najbliższe 24 godziny)

TLE

ŚwieżeSource: CelesTrak SupGP

Epoka: Sep 15, 2026, 02:01 UTC

1 55611C 23020AU  26258.08451389 -.00013371  00000+0 -48403-3 0  2582
2 55611  43.0037   4.9729 0002175 268.7365 343.4636 15.27600955    10

Śledź STARLINK-5730 w czasie rzeczywistym z AllMySat

Download on the App Store